This demonstration page uses our WeatherBlox Daily Observations layout. Learn more.

Left ArrowRight Arrow

39.92423, -83.80882

Hourly Observations for June 15, 2021

Temp ( °F °C ) Dew Point ( °F °C ) Humidity (%) Winds ( mph kmh ) Pressure ( in mb ) Visibility ( mi km ) Precip ( " mm )
12:56 am 00:56 Clear 61 16.1 57 13.9 87 87 N 6 9 29.95 1014 10 16 N/A
1:56 am 01:56 Clear 59 15 58 14.4 96 96 WNW 3 6 29.96 1014 10 16 N/A
2:56 am 02:56 Clear 58 14.4 58 14.4 100 100 W 5 7 29.97 1015 10 16 N/A
3:56 am 03:56 Clear 57 14 N/A N/A N N/A 29.97 1015 10 16 N/A
4:56 am 04:56 Clear 55 13 N/A N/A NW 5 7 29.98 1015 10 16 N/A
5:56 am 05:56 Clear 55 13 N/A N/A NW 7 11 29.98 1015 10 16 N/A
6:56 am 06:56 Sunny 57 14 N/A N/A WNW 6 9 29.99 1016 10 16 N/A
7:56 am 07:56 Sunny 62 16.7 59 15 90 90 NW 6 9 30.00 1016 10 16 N/A
8:56 am 08:56 Sunny 67 19.4 59 15 76 76 NW 9 15 30.02 1017 10 16 N/A
9:56 am 09:56 Sunny 70 21.1 56 13.3 61 61 NW 9 15 30.02 1017 10 16 N/A
10:56 am 10:56 Mostly Sunny 72 22.2 58 14.4 61 61 NNW 12 19 30.02 1017 10 16 N/A
11:56 am 11:56 Mostly Cloudy 75 23.9 56 13.3 52 52 NW 14 22 30.02 1017 10 16 N/A
12:56 pm 12:56 Mostly Cloudy 75 23.9 54 12.2 48 48 NNW 12 19 30.02 1017 10 16 N/A
1:56 pm 13:56 Mostly Cloudy 77 25 54 12.2 45 45 NNW 15 24 30.01 1016 10 16 N/A
2:56 pm 14:56 Mostly Sunny 78 25.6 52 11.1 40 40 N 17 28 30.00 1016 10 16 N/A
3:56 pm 15:56 Mostly Sunny 79 26.1 52 11.1 39 39 NNW 10 17 29.99 1016 10 16 N/A
4:56 pm 16:56 Mostly Cloudy 79 26.1 53 11.7 41 41 WNW 10 17 29.98 1015 10 16 N/A
5:25 pm 17:25 Cloudy 75 24 54 12 47 47 N 13 20 29.96 1014 10 16 N/A
5:56 pm 17:56 Cloudy 76 24.4 53 11.7 45 45 NNW 12 19 29.99 1016 10 16 N/A
6:56 pm 18:56 Mostly Cloudy 76 24.4 55 12.8 48 48 N 12 19 29.98 1015 10 16 N/A
7:56 pm 19:56 Sunny 74 23.3 53 11.7 48 48 N 10 17 29.98 1015 10 16 N/A
8:56 pm 20:56 Mostly Sunny 70 21.1 54 12.2 57 57 N 7 11 29.98 1015 10 16 N/A
9:56 pm 21:56 Mostly Clear 68 20 53 11.7 59 59 N 5 7 30.00 1016 10 16 N/A
10:56 pm 22:56 Clear 62 16.7 54 12.2 75 75 ENE 7 11 30.02 1017 10 16 N/A
11:56 pm 23:56 Mostly Clear 60 15.6 55 12.8 84 84 NE 9 15 30.02 1017 10 16 N/A

Powered by AerisWeather